Time,TemperatureF,DewpointF,PressureIn,WindDirection,WindDirectionDegrees,WindSpeedMPH,WindSpeedGustMPH,Humidity,HourlyPrecipIn,Conditions,Clouds,dailyrainin,SoftwareType,DateUTC
2013-03-31 00:03:00,47.0,-99.9,30.12,North,0,0.0,0.0,78,0.00,,,0.04,,2013-03-31 04:03:00,
2013-03-31 00:13:00,47.0,41.0,30.12,North,0,0.0,0.0,78,0.00,,,0.04,,2013-03-31 04:13:00,
2013-03-31 00:23:00,47.0,41.0,30.11,North,0,0.0,0.0,79,0.00,,,0.04,,2013-03-31 04:23:00,
2013-03-31 00:33:00,47.0,41.0,30.11,North,0,0.0,0.0,80,0.00,,,0.04,,2013-03-31 04:33:00,
2013-03-31 00:42:00,47.0,41.0,30.11,North,0,0.0,0.0,80,0.00,,,0.04,,2013-03-31 04:42:00,
2013-03-31 00:52:00,48.0,43.0,30.11,North,0,0.0,0.0,82,0.00,,,0.04,,2013-03-31 04:52:00,
2013-03-31 01:02:00,48.0,43.0,30.11,North,0,0.0,0.0,82,0.00,,,0.04,,2013-03-31 05:02:00,
2013-03-31 01:12:00,48.0,43.0,30.11,North,0,0.0,0.0,82,0.00,,,0.04,,2013-03-31 05:12:00,
2013-03-31 01:22:00,48.0,43.0,30.10,North,0,0.0,0.0,82,0.00,,,0.04,,2013-03-31 05:22:00,
2013-03-31 01:32:00,49.0,44.0,30.10,North,0,0.0,0.0,83,0.00,,,0.04,,2013-03-31 05:32:00,
2013-03-31 01:42:00,49.0,44.0,30.10,North,0,0.0,0.0,83,0.00,,,0.04,,2013-03-31 05:42:00,
2013-03-31 01:53:00,49.0,44.0,30.10,North,0,0.0,0.0,83,0.00,,,0.04,,2013-03-31 05:53:00,
2013-03-31 02:02:00,49.0,44.0,30.10,North,0,0.0,0.0,82,0.00,,,0.04,,2013-03-31 06:02:00,
2013-03-31 02:12:00,49.0,44.0,30.10,North,0,0.0,0.0,82,0.00,,,0.04,,2013-03-31 06:12:00,
2013-03-31 02:22:00,49.0,44.0,30.08,North,0,0.0,0.0,83,0.00,,,0.04,,2013-03-31 06:22:00,
2013-03-31 02:33:00,49.0,44.0,30.08,North,0,0.0,0.0,83,0.00,,,0.04,,2013-03-31 06:33:00,
2013-03-31 02:40:00,49.0,44.0,30.08,North,0,0.0,0.0,83,0.00,,,0.04,,2013-03-31 06:40:00,
2013-03-31 02:42:00,49.0,44.0,30.08,North,0,0.0,0.0,83,0.00,,,0.04,,2013-03-31 06:42:00,
2013-03-31 02:52:00,49.0,44.0,30.08,North,0,0.0,0.0,83,0.00,,,0.04,,2013-03-31 06:52:00,
2013-03-31 03:02:00,49.0,44.0,30.08,North,0,0.0,0.0,83,0.00,,,0.04,,2013-03-31 07:02:00,
2013-03-31 03:12:00,49.0,44.0,30.08,North,0,0.0,0.0,83,0.00,,,0.04,,2013-03-31 07:12:00,
2013-03-31 03:22:00,49.0,44.0,30.08,North,0,0.0,0.0,83,0.00,,,0.04,,2013-03-31 07:22:00,
2013-03-31 03:33:00,49.0,44.0,30.08,North,0,0.0,0.0,83,0.00,,,0.04,,2013-03-31 07:33:00,
2013-03-31 03:53:00,48.0,43.0,30.05,North,0,0.0,0.0,83,0.00,,,0.04,,2013-03-31 07:53:00,
2013-03-31 04:02:00,48.0,43.0,30.05,North,0,0.0,0.0,83,0.00,,,0.04,,2013-03-31 08:02:00,
2013-03-31 04:12:00,48.0,43.0,30.05,North,0,0.0,0.0,83,0.00,,,0.04,,2013-03-31 08:12:00,
2013-03-31 04:22:00,48.0,43.0,30.04,North,0,0.0,0.0,84,0.00,,,0.04,,2013-03-31 08:22:00,
2013-03-31 04:32:00,48.0,43.0,30.04,North,0,0.0,0.0,84,0.00,,,0.04,,2013-03-31 08:32:00,
2013-03-31 04:42:00,48.0,43.0,30.04,North,0,0.0,0.0,84,0.00,,,0.04,,2013-03-31 08:42:00,
2013-03-31 04:52:00,48.0,43.0,30.03,North,0,0.0,0.0,84,0.00,,,0.04,,2013-03-31 08:52:00,
2013-03-31 05:02:00,48.0,44.0,30.02,North,0,0.0,0.0,85,0.00,,,0.04,,2013-03-31 09:02:00,
2013-03-31 05:12:00,48.0,44.0,30.02,North,0,0.0,0.0,85,0.00,,,0.04,,2013-03-31 09:12:00,
2013-03-31 05:22:00,48.0,44.0,30.02,North,0,0.0,0.0,85,0.00,,,0.04,,2013-03-31 09:22:00,
2013-03-31 05:33:00,49.0,45.0,30.02,North,0,0.0,0.0,86,0.00,,,0.04,,2013-03-31 09:33:00,
2013-03-31 05:42:00,49.0,45.0,30.02,North,0,0.0,0.0,86,0.00,,,0.04,,2013-03-31 09:42:00,
2013-03-31 05:53:00,50.0,46.0,30.01,North,0,0.0,0.0,86,0.00,,,0.04,,2013-03-31 09:53:00,
2013-03-31 06:03:00,51.0,47.0,30.02,North,0,0.0,0.0,87,0.00,,,0.04,,2013-03-31 10:03:00,
2013-03-31 06:13:00,51.0,47.0,30.02,North,0,0.0,0.0,87,0.00,,,0.04,,2013-03-31 10:13:00,
2013-03-31 06:24:00,51.0,47.0,30.01,North,0,0.0,0.0,87,0.00,,,0.04,,2013-03-31 10:24:00,
2013-03-31 06:32:00,52.0,48.0,30.01,North,0,0.0,0.0,87,0.00,,,0.03,,2013-03-31 10:32:00,
2013-03-31 06:42:00,52.0,48.0,30.01,North,0,0.0,0.0,87,0.00,,,0.03,,2013-03-31 10:42:00,
2013-03-31 06:53:00,52.0,48.0,30.01,North,0,0.0,0.0,87,0.00,,,0.02,,2013-03-31 10:53:00,
2013-03-31 07:03:00,52.0,48.0,30.01,North,0,0.0,0.0,87,0.00,,,0.02,,2013-03-31 11:03:00,
2013-03-31 07:12:00,52.0,48.0,30.01,North,0,0.0,0.0,87,0.00,,,0.02,,2013-03-31 11:12:00,
2013-03-31 07:23:00,53.0,49.0,30.01,North,0,0.0,0.0,87,0.00,,,0.01,,2013-03-31 11:23:00,
2013-03-31 07:32:00,53.0,49.0,30.01,North,0,0.0,0.0,87,0.00,,,0.01,,2013-03-31 11:32:00,
2013-03-31 07:43:00,53.0,49.0,30.01,North,0,0.0,0.0,87,0.00,,,0.01,,2013-03-31 11:43:00,
2013-03-31 07:53:00,53.0,49.0,30.01,North,0,0.0,0.0,87,0.00,,,0.01,,2013-03-31 11:53:00,
2013-03-31 08:03:00,54.0,50.0,30.00,North,0,0.0,0.0,87,0.00,,,0.01,,2013-03-31 12:03:00,
2013-03-31 08:12:00,54.0,50.0,30.00,North,0,0.0,0.0,87,0.00,,,0.01,,2013-03-31 12:12:00,
2013-03-31 08:22:00,54.0,50.0,30.00,North,0,0.0,2.0,87,0.00,,,0.00,,2013-03-31 12:22:00,
2013-03-31 08:33:00,55.0,51.0,30.01,North,0,0.0,2.0,87,0.00,,,0.00,,2013-03-31 12:33:00,
2013-03-31 08:42:00,55.0,51.0,30.01,North,0,0.0,2.0,87,0.00,,,0.00,,2013-03-31 12:42:00,
2013-03-31 08:53:00,55.0,52.0,30.01,North,0,0.0,5.0,88,0.00,,,0.00,,2013-03-31 12:53:00,
2013-03-31 09:02:00,57.0,53.0,30.00,North,0,0.0,0.0,87,0.01,,,0.01,,2013-03-31 13:02:00,
2013-03-31 09:12:00,57.0,53.0,30.00,North,0,0.0,0.0,87,0.01,,,0.01,,2013-03-31 13:12:00,
2013-03-31 09:22:00,58.0,54.0,30.00,West,261,1.0,6.0,87,0.01,,,0.01,,2013-03-31 13:22:00,
2013-03-31 09:32:00,58.0,54.0,30.00,West,269,1.0,1.0,86,0.01,,,0.01,,2013-03-31 13:32:00,
2013-03-31 09:42:00,58.0,54.0,30.00,West,269,1.0,1.0,86,0.01,,,0.01,,2013-03-31 13:42:00,
2013-03-31 09:52:00,59.0,54.0,29.99,SW,228,1.0,6.0,84,0.01,,,0.01,,2013-03-31 13:52:00,
2013-03-31 10:03:00,60.0,55.0,30.00,North,0,0.0,5.0,83,0.01,,,0.01,,2013-03-31 14:03:00,
2013-03-31 10:12:00,60.0,55.0,30.00,North,0,0.0,5.0,83,0.01,,,0.01,,2013-03-31 14:12:00,
2013-03-31 10:22:00,61.0,54.0,29.99,West,269,2.0,7.0,79,0.00,,,0.01,,2013-03-31 14:22:00,
2013-03-31 10:32:00,62.0,54.0,29.99,West,276,1.0,5.0,76,0.00,,,0.01,,2013-03-31 14:32:00,
2013-03-31 10:42:00,62.0,54.0,29.99,West,276,1.0,5.0,76,0.00,,,0.01,,2013-03-31 14:42:00,
2013-03-31 10:52:00,63.0,54.0,29.98,West,270,1.0,4.0,73,0.00,,,0.01,,2013-03-31 14:52:00,
2013-03-31 11:03:00,64.0,54.0,29.98,West,270,1.0,11.0,71,0.00,,,0.01,,2013-03-31 15:03:00,
2013-03-31 11:13:00,64.0,54.0,29.98,West,270,1.0,11.0,71,0.00,,,0.01,,2013-03-31 15:13:00,
2013-03-31 11:22:00,64.0,54.0,29.98,North,0,0.0,5.0,69,0.00,,,0.01,,2013-03-31 15:22:00,
2013-03-31 11:34:00,65.0,54.0,29.97,WSW,257,1.0,4.0,67,0.00,,,0.01,,2013-03-31 15:34:00,
2013-03-31 11:43:00,65.0,54.0,29.97,WSW,257,1.0,4.0,67,0.00,,,0.01,,2013-03-31 15:43:00,
2013-03-31 11:53:00,66.0,54.0,29.96,North,0,0.0,4.0,65,0.00,,,0.01,,2013-03-31 15:53:00,
2013-03-31 12:03:00,68.0,55.0,29.96,North,0,0.0,16.0,63,0.00,,,0.01,,2013-03-31 16:03:00,
2013-03-31 12:13:00,68.0,55.0,29.96,North,0,0.0,16.0,63,0.00,,,0.01,,2013-03-31 16:13:00,
2013-03-31 12:23:00,69.0,55.0,29.96,SSW,201,2.0,7.0,60,0.00,,,0.01,,2013-03-31 16:23:00,
2013-03-31 12:33:00,71.0,55.0,29.96,WSW,254,2.0,6.0,57,0.00,,,0.01,,2013-03-31 16:33:00,
2013-03-31 12:43:00,71.0,55.0,29.96,WSW,254,2.0,6.0,57,0.00,,,0.01,,2013-03-31 16:43:00,
2013-03-31 12:53:00,71.0,54.0,29.96,SSW,207,5.0,13.0,54,0.00,,,0.01,,2013-03-31 16:53:00,
2013-03-31 13:03:00,71.0,54.0,29.95,WSW,253,5.0,11.0,55,0.00,,,0.01,,2013-03-31 17:03:00,
2013-03-31 13:12:00,71.0,54.0,29.95,WSW,253,5.0,11.0,55,0.00,,,0.01,,2013-03-31 17:12:00,
2013-03-31 13:23:00,72.0,52.0,29.93,WSW,245,5.0,19.0,50,0.00,,,0.01,,2013-03-31 17:23:00,
2013-03-31 13:32:00,74.0,54.0,29.92,West,260,5.0,14.0,50,0.00,,,0.01,,2013-03-31 17:32:00,
2013-03-31 13:43:00,74.0,54.0,29.92,West,260,5.0,14.0,50,0.00,,,0.01,,2013-03-31 17:43:00,
2013-03-31 13:52:00,73.0,54.0,29.92,SW,223,6.0,13.0,51,0.00,,,0.01,,2013-03-31 17:52:00,
2013-03-31 14:03:00,72.0,54.0,29.91,SSW,200,5.0,13.0,54,0.00,,,0.01,,2013-03-31 18:03:00,
2013-03-31 14:13:00,72.0,54.0,29.91,SSW,200,5.0,13.0,54,0.00,,,0.01,,2013-03-31 18:13:00,
2013-03-31 14:22:00,72.0,55.0,29.89,WSW,251,4.0,13.0,55,0.00,,,0.01,,2013-03-31 18:22:00,
2013-03-31 14:33:00,72.0,54.0,29.89,SSW,193,4.0,14.0,54,0.00,,,0.01,,2013-03-31 18:33:00,
2013-03-31 14:42:00,72.0,54.0,29.89,SSW,193,4.0,14.0,54,0.00,,,0.01,,2013-03-31 18:42:00,
2013-03-31 14:53:00,73.0,55.0,29.88,SSW,207,2.0,22.0,53,0.00,,,0.01,,2013-03-31 18:53:00,
2013-03-31 15:03:00,73.0,55.0,29.87,SSW,201,4.0,4.0,53,0.00,,,0.01,,2013-03-31 19:03:00,
2013-03-31 15:12:00,73.0,55.0,29.87,SSW,201,4.0,4.0,53,0.00,,,0.01,,2013-03-31 19:12:00,
2013-03-31 15:22:00,73.0,54.0,29.87,SW,231,5.0,20.0,52,0.00,,,0.01,,2013-03-31 19:22:00,
2013-03-31 15:33:00,73.0,54.0,29.87,SW,231,5.0,20.0,52,0.00,,,0.01,,2013-03-31 19:33:00,
2013-03-31 15:43:00,73.0,54.0,29.87,SW,231,5.0,20.0,52,0.00,,,0.01,,2013-03-31 19:43:00,
2013-03-31 15:53:00,72.0,54.0,29.87,WSW,244,4.0,11.0,53,0.00,,,0.01,,2013-03-31 19:53:00,
2013-03-31 16:03:00,72.0,54.0,29.87,WSW,244,4.0,11.0,53,0.00,,,0.01,,2013-03-31 20:03:00,
2013-03-31 16:13:00,72.0,54.0,29.87,WSW,244,4.0,11.0,53,0.00,,,0.01,,2013-03-31 20:13:00,
2013-03-31 16:23:00,72.0,54.0,29.86,SW,223,5.0,13.0,53,0.00,,,0.01,,2013-03-31 20:23:00,
2013-03-31 16:33:00,73.0,55.0,29.85,SSW,195,5.0,14.0,53,0.00,,,0.01,,2013-03-31 20:33:00,
2013-03-31 16:43:00,73.0,55.0,29.85,SSW,195,5.0,14.0,53,0.00,,,0.01,,2013-03-31 20:43:00,
2013-03-31 16:53:00,72.0,54.0,29.85,WSW,244,6.0,18.0,54,0.00,,,0.01,,2013-03-31 20:53:00,
2013-03-31 17:02:00,72.0,55.0,29.85,WSW,253,5.0,17.0,55,0.00,,,0.01,,2013-03-31 21:02:00,
2013-03-31 17:13:00,72.0,55.0,29.85,WSW,253,5.0,17.0,55,0.00,,,0.01,,2013-03-31 21:13:00,
2013-03-31 17:22:00,71.0,54.0,29.86,SW,217,5.0,12.0,56,0.00,,,0.01,,2013-03-31 21:22:00,
2013-03-31 17:34:00,71.0,54.0,29.86,SW,220,4.0,14.0,56,0.00,,,0.01,,2013-03-31 21:34:00,
2013-03-31 17:43:00,71.0,54.0,29.86,SW,220,4.0,14.0,56,0.00,,,0.01,,2013-03-31 21:43:00,
2013-03-31 17:54:00,70.0,55.0,29.86,SW,216,5.0,12.0,58,0.00,,,0.01,,2013-03-31 21:54:00,
2013-03-31 18:04:00,70.0,55.0,29.85,SW,236,4.0,11.0,58,0.00,,,0.01,,2013-03-31 22:04:00,
2013-03-31 18:13:00,70.0,55.0,29.85,SW,236,4.0,11.0,58,0.00,,,0.01,,2013-03-31 22:13:00,
2013-03-31 18:23:00,69.0,54.0,29.85,WSW,252,2.0,11.0,59,0.00,,,0.01,,2013-03-31 22:23:00,
2013-03-31 18:33:00,68.0,54.0,29.85,SSE,164,4.0,8.0,60,0.00,,,0.01,,2013-03-31 22:33:00,
2013-03-31 18:43:00,68.0,54.0,29.85,SSE,164,4.0,8.0,60,0.00,,,0.01,,2013-03-31 22:43:00,
2013-03-31 18:53:00,68.0,54.0,29.85,SW,228,2.0,18.0,61,0.00,,,0.01,,2013-03-31 22:53:00,
2013-03-31 19:03:00,68.0,54.0,29.85,SW,228,2.0,18.0,61,0.00,,,0.01,,2013-03-31 23:03:00,
2013-03-31 19:13:00,68.0,54.0,29.85,SW,228,2.0,18.0,61,0.00,,,0.01,,2013-03-31 23:13:00,
2013-03-31 19:22:00,66.0,53.0,29.86,SW,216,2.0,13.0,64,0.00,,,0.01,,2013-03-31 23:22:00,
2013-03-31 19:33:00,65.0,53.0,29.86,SW,226,4.0,10.0,65,0.00,,,0.01,,2013-03-31 23:33:00,
2013-03-31 19:43:00,65.0,53.0,29.86,SW,226,4.0,10.0,65,0.00,,,0.01,,2013-03-31 23:43:00,
2013-03-31 19:53:00,64.0,52.0,29.86,WSW,243,1.0,7.0,66,0.00,,,0.01,,2013-03-31 23:53:00,
2013-03-31 20:02:00,64.0,53.0,29.86,WSW,238,2.0,14.0,67,0.00,,,0.01,,2013-04-01 00:02:00,
2013-03-31 20:13:00,64.0,53.0,29.86,WSW,238,2.0,14.0,67,0.00,,,0.01,,2013-04-01 00:13:00,
2013-03-31 20:22:00,63.0,53.0,29.87,WSW,258,2.0,12.0,69,0.00,,,0.01,,2013-04-01 00:22:00,
2013-03-31 20:32:00,63.0,53.0,29.87,WSW,258,2.0,12.0,69,0.00,,,0.01,,2013-04-01 00:32:00,
2013-03-31 20:43:00,63.0,53.0,29.87,WSW,258,2.0,12.0,69,0.00,,,0.01,,2013-04-01 00:43:00,
2013-03-31 20:53:00,62.0,52.0,29.86,West,260,1.0,10.0,69,0.00,,,0.01,,2013-04-01 00:53:00,
2013-03-31 21:03:00,62.0,52.0,29.87,WSW,253,4.0,13.0,69,0.00,,,0.01,,2013-04-01 01:03:00,
2013-03-31 21:13:00,62.0,52.0,29.87,WSW,253,4.0,13.0,69,0.00,,,0.01,,2013-04-01 01:13:00,
2013-03-31 21:23:00,62.0,52.0,29.87,South,182,2.0,7.0,69,0.00,,,0.01,,2013-04-01 01:23:00,
2013-03-31 21:32:00,63.0,52.0,29.87,WSW,240,2.0,8.0,68,0.00,,,0.01,,2013-04-01 01:32:00,
2013-03-31 21:42:00,63.0,52.0,29.87,WSW,240,2.0,8.0,68,0.00,,,0.01,,2013-04-01 01:42:00,
2013-03-31 21:52:00,63.0,52.0,29.88,WSW,246,2.0,8.0,67,0.00,,,0.01,,2013-04-01 01:52:00,
2013-03-31 22:03:00,63.0,52.0,29.88,SSW,203,2.0,12.0,67,0.00,,,0.01,,2013-04-01 02:03:00,
2013-03-31 22:13:00,63.0,52.0,29.88,SSW,203,2.0,12.0,67,0.00,,,0.01,,2013-04-01 02:13:00,
2013-03-31 22:23:00,63.0,53.0,29.90,WSW,256,6.0,12.0,70,0.00,,,0.01,,2013-04-01 02:23:00,
2013-03-31 22:33:00,62.0,54.0,29.90,West,272,6.0,17.0,76,0.04,,,0.05,,2013-04-01 02:33:00,
2013-03-31 22:42:00,62.0,54.0,29.90,West,272,6.0,17.0,76,0.04,,,0.05,,2013-04-01 02:42:00,
2013-03-31 22:53:00,61.0,54.0,29.90,WSW,257,4.0,6.0,78,0.04,,,0.05,,2013-04-01 02:53:00,
2013-03-31 23:03:00,60.0,54.0,29.89,WSW,253,1.0,5.0,80,0.04,,,0.05,,2013-04-01 03:03:00,
2013-03-31 23:12:00,60.0,54.0,29.89,WSW,253,1.0,5.0,80,0.04,,,0.05,,2013-04-01 03:12:00,
2013-03-31 23:23:00,60.0,54.0,29.89,North,0,0.0,5.0,81,0.04,,,0.05,,2013-04-01 03:23:00,
2013-03-31 23:34:00,60.0,54.0,29.88,North,0,1.0,0.0,82,0.03,,,0.06,,2013-04-01 03:34:00,
2013-03-31 23:43:00,60.0,54.0,29.88,North,0,1.0,0.0,82,0.03,,,0.06,,2013-04-01 03:43:00,
2013-03-31 23:53:00,60.0,54.0,29.88,North,0,0.0,5.0,82,0.01,,,0.06,,2013-04-01 03:53:00,